Time,TemperatureF,DewpointF,PressureIn,WindDirection,WindDirectionDegrees,WindSpeedMPH,WindSpeedGustMPH,Humidity,HourlyPrecipIn,Conditions,Clouds,dailyrainin,SoftwareType,DateUTC
2013-06-25 00:02:00,59.7,57.4,29.91,SE,131,3.5,3.5,92,0.00,RA,,0.00,WeatherDisplay:10.37,2013-06-25 07:02:00,
2013-06-25 00:07:00,59.7,57.4,29.90,SSE,152,8.1,8.1,92,0.00,RA,,0.00,WeatherDisplay:10.37,2013-06-25 07:07:00,
2013-06-25 00:12:00,59.7,57.4,29.90,SE,146,4.6,4.6,92,0.00,CLR,,0.00,WeatherDisplay:10.37,2013-06-25 07:12:00,
2013-06-25 00:17:00,59.7,57.4,29.90,SE,143,6.9,6.9,92,0.00,CLR,,0.00,WeatherDisplay:10.37,2013-06-25 07:17:00,
2013-06-25 00:22:00,59.7,57.1,29.91,South,177,5.8,5.8,91,0.00,CLR,,0.00,WeatherDisplay:10.37,2013-06-25 07:22:00,
2013-06-25 00:27:00,59.7,57.1,29.91,SE,135,3.5,3.5,91,0.00,CLR,,0.00,WeatherDisplay:10.37,2013-06-25 07:27:00,
2013-06-25 00:32:00,59.8,57.2,29.90,SE,124,3.5,3.5,91,0.00,CLR,,0.00,WeatherDisplay:10.37,2013-06-25 07:32:00,
2013-06-25 00:37:00,59.8,57.2,29.90,SSE,148,4.6,4.6,91,0.00,CLR,,0.00,WeatherDisplay:10.37,2013-06-25 07:37:00,
2013-06-25 00:42:00,59.8,57.2,29.91,SSE,158,5.8,5.8,91,0.00,CLR,,0.00,WeatherDisplay:10.37,2013-06-25 07:42:00,
2013-06-25 00:47:00,59.9,57.3,29.90,ESE,117,3.5,3.5,91,0.00,CLR,,0.00,WeatherDisplay:10.37,2013-06-25 07:47:00,
2013-06-25 00:52:00,59.9,57.3,29.91,ESE,123,3.5,3.5,91,0.00,CLR,,0.00,WeatherDisplay:10.37,2013-06-25 07:52:00,
2013-06-25 00:57:00,59.9,57.3,29.91,SE,129,2.3,2.3,91,0.00,CLR,,0.00,WeatherDisplay:10.37,2013-06-25 07:57:00,
2013-06-25 01:02:00,59.9,57.3,29.91,SE,131,4.6,4.6,91,0.00,CLR,,0.00,WeatherDisplay:10.37,2013-06-25 08:02:00,
2013-06-25 01:07:00,60.0,57.4,29.91,SE,134,3.5,3.5,91,0.00,CLR,,0.00,WeatherDisplay:10.37,2013-06-25 08:07:00,
2013-06-25 01:12:00,60.0,57.1,29.91,SSE,148,4.6,4.6,90,0.00,CLR,,0.00,WeatherDisplay:10.37,2013-06-25 08:12:00,
2013-06-25 01:41:00,59.9,57.3,29.91,SE,146,0.0,0.0,91,0.01,RA,,0.01,WeatherDisplay:10.37,2013-06-25 08:41:00,
2013-06-25 01:46:00,59.7,57.1,29.91,ESE,121,1.2,1.2,91,0.01,RA,,0.01,WeatherDisplay:10.37,2013-06-25 08:46:00,
2013-06-25 01:51:00,59.6,57.0,29.91,ESE,122,1.2,1.2,91,0.02,RA,,0.02,WeatherDisplay:10.37,2013-06-25 08:51:00,
2013-06-25 01:56:00,59.5,57.2,29.91,SE,124,1.2,1.2,92,0.02,RA,,0.02,WeatherDisplay:10.37,2013-06-25 08:56:00,
2013-06-25 02:01:00,59.4,57.1,29.91,SE,131,1.2,1.2,92,0.03,RA,,0.03,WeatherDisplay:10.37,2013-06-25 09:01:00,
2013-06-25 02:06:00,59.3,57.0,29.91,SE,141,1.2,1.2,92,0.03,RA,,0.03,WeatherDisplay:10.37,2013-06-25 09:06:00,
2013-06-25 02:11:00,59.3,57.0,29.91,South,169,2.3,2.3,92,0.03,,,0.03,WeatherDisplay:10.37,2013-06-25 09:11:00,
2013-06-25 02:16:00,59.3,57.0,29.91,ESE,121,0.0,0.2,92,0.03,CLR,,0.03,WeatherDisplay:10.37,2013-06-25 09:16:00,
2013-06-25 02:21:00,59.3,57.3,29.91,SE,144,0.0,0.0,93,0.03,CLR,,0.03,WeatherDisplay:10.37,2013-06-25 09:21:00,
2013-06-25 02:26:00,59.3,57.3,29.91,SE,131,0.0,0.3,93,0.03,CLR,,0.03,WeatherDisplay:10.37,2013-06-25 09:26:00,
2013-06-25 02:31:00,59.3,57.3,29.91,SSE,150,2.3,2.3,93,0.04,RA,,0.04,WeatherDisplay:10.37,2013-06-25 09:31:00,
2013-06-25 02:36:00,59.3,57.3,29.91,SSE,166,1.2,0.0,93,0.04,RA,,0.04,WeatherDisplay:10.37,2013-06-25 09:36:00,
2013-06-25 02:41:00,59.3,57.3,29.91,SSE,153,2.3,2.3,93,0.03,,,0.04,WeatherDisplay:10.37,2013-06-25 09:41:00,
2013-06-25 02:46:00,59.3,57.3,29.91,South,170,1.0,1.0,93,0.04,RA,,0.05,WeatherDisplay:10.37,2013-06-25 09:46:00,
2013-06-25 02:51:00,59.3,57.3,29.91,SE,142,2.3,2.3,93,0.03,RA,,0.05,WeatherDisplay:10.37,2013-06-25 09:51:00,
2013-06-25 02:56:00,59.3,57.3,29.90,ESE,122,1.2,1.2,93,0.04,RA,,0.06,WeatherDisplay:10.37,2013-06-25 09:56:00,
2013-06-25 03:01:00,59.3,57.3,29.90,SE,139,1.2,1.2,93,0.03,RA,,0.06,WeatherDisplay:10.37,2013-06-25 10:01:00,
2013-06-25 03:06:00,59.3,57.3,29.90,ESE,122,2.3,2.3,93,0.03,,,0.06,WeatherDisplay:10.37,2013-06-25 10:06:00,
2013-06-25 03:11:00,59.3,57.3,29.90,SE,139,1.2,0.0,93,0.03,CLR,,0.06,WeatherDisplay:10.37,2013-06-25 10:11:00,
2013-06-25 03:16:00,59.3,57.3,29.90,SE,130,1.2,1.2,93,0.04,RA,,0.07,WeatherDisplay:10.37,2013-06-25 10:16:00,
2013-06-25 03:21:00,59.2,57.2,29.90,SE,127,2.3,0.0,93,0.04,RA,,0.07,WeatherDisplay:10.37,2013-06-25 10:21:00,
2013-06-25 03:26:00,59.3,57.3,29.90,ESE,122,1.2,1.2,93,0.05,RA,,0.08,WeatherDisplay:10.37,2013-06-25 10:26:00,
2013-06-25 03:31:00,59.2,57.2,29.90,ESE,119,1.2,1.2,93,0.04,RA,,0.08,WeatherDisplay:10.37,2013-06-25 10:31:00,
2013-06-25 03:36:00,59.2,57.2,29.90,ESE,122,1.2,1.2,93,0.04,,,0.08,WeatherDisplay:10.37,2013-06-25 10:36:00,
2013-06-25 03:41:00,59.2,57.2,29.90,ESE,118,2.3,2.3,93,0.04,CLR,,0.08,WeatherDisplay:10.37,2013-06-25 10:41:00,
2013-06-25 03:47:00,59.2,57.2,29.90,ESE,120,1.2,1.2,93,0.04,RA,,0.09,WeatherDisplay:10.37,2013-06-25 10:47:00,
2013-06-25 03:52:00,59.2,57.2,29.90,ESE,108,1.2,1.2,93,0.04,RA,,0.09,WeatherDisplay:10.37,2013-06-25 10:52:00,
2013-06-25 03:57:00,59.3,57.6,29.90,ESE,108,1.2,1.2,94,0.03,CLR,,0.09,WeatherDisplay:10.37,2013-06-25 10:57:00,
2013-06-25 04:02:00,59.3,57.6,29.90,East,98,1.2,1.2,94,0.04,RA,,0.10,WeatherDisplay:10.37,2013-06-25 11:02:00,
2013-06-25 04:07:00,59.3,57.6,29.90,ESE,115,2.3,2.3,94,0.04,RA,,0.10,WeatherDisplay:10.37,2013-06-25 11:07:00,
2013-06-25 04:12:00,59.3,57.6,29.90,ESE,117,2.3,2.3,94,0.04,CLR,,0.10,WeatherDisplay:10.37,2013-06-25 11:12:00,
2013-06-25 04:17:00,59.3,57.6,29.89,SE,136,1.2,1.2,94,0.03,CLR,,0.10,WeatherDisplay:10.37,2013-06-25 11:17:00,
2013-06-25 04:22:00,59.3,57.6,29.90,SE,127,1.2,1.2,94,0.03,CLR,,0.10,WeatherDisplay:10.37,2013-06-25 11:22:00,
2013-06-25 04:27:00,59.3,57.6,29.89,ESE,123,1.2,1.2,94,0.02,CLR,,0.10,WeatherDisplay:10.37,2013-06-25 11:27:00,
2013-06-25 04:32:00,59.3,57.6,29.89,ESE,118,1.2,1.2,94,0.02,CLR,,0.10,WeatherDisplay:10.37,2013-06-25 11:32:00,
2013-06-25 04:37:00,59.3,57.6,29.89,SE,134,2.3,2.3,94,0.02,CLR,,0.10,WeatherDisplay:10.37,2013-06-25 11:37:00,
2013-06-25 04:42:00,59.3,57.6,29.89,SE,145,1.2,1.2,94,0.03,RA,,0.11,WeatherDisplay:10.37,2013-06-25 11:42:00,
2013-06-25 04:47:00,59.4,57.7,29.89,SE,127,2.3,2.3,94,0.02,RA,,0.11,WeatherDisplay:10.37,2013-06-25 11:47:00,
2013-06-25 04:52:00,59.4,57.7,29.89,SE,144,3.5,3.5,94,0.02,CLR,,0.11,WeatherDisplay:10.37,2013-06-25 11:52:00,
2013-06-25 04:57:00,59.4,57.7,29.89,SE,125,1.2,1.2,94,0.02,CLR,,0.11,WeatherDisplay:10.37,2013-06-25 11:57:00,
2013-06-25 05:02:00,59.4,57.7,29.90,ESE,118,1.2,1.2,94,0.01,CLR,,0.11,WeatherDisplay:10.37,2013-06-25 12:02:00,
2013-06-25 05:07:00,59.5,57.8,29.90,ESE,110,3.5,3.5,94,0.01,CLR,,0.11,WeatherDisplay:10.37,2013-06-25 12:07:00,
2013-06-25 05:12:00,59.5,57.8,29.90,SSE,162,1.2,1.2,94,0.01,CLR,,0.11,WeatherDisplay:10.37,2013-06-25 12:12:00,
2013-06-25 05:17:00,59.5,57.8,29.90,SE,129,2.3,2.3,94,0.01,CLR,,0.11,WeatherDisplay:10.37,2013-06-25 12:17:00,
2013-06-25 05:22:00,59.5,57.8,29.90,SE,128,2.3,2.3,94,0.01,CLR,,0.11,WeatherDisplay:10.37,2013-06-25 12:22:00,
2013-06-25 05:27:00,59.6,57.9,29.90,SE,124,2.3,2.3,94,0.01,CLR,,0.11,WeatherDisplay:10.37,2013-06-25 12:27:00,
2013-06-25 05:32:00,59.6,57.9,29.90,SSW,212,2.3,2.3,94,0.01,CLR,,0.11,WeatherDisplay:10.37,2013-06-25 12:32:00,
2013-06-25 05:37:00,59.7,58.0,29.90,SE,131,1.2,1.2,94,0.02,RA,,0.12,WeatherDisplay:10.37,2013-06-25 12:37:00,
2013-06-25 05:42:00,59.7,58.0,29.90,SSE,151,3.5,3.5,94,0.01,RA,,0.12,WeatherDisplay:10.37,2013-06-25 12:42:00,
2013-06-25 05:47:00,59.7,58.0,29.90,SE,137,1.2,1.2,94,0.01,,,0.12,WeatherDisplay:10.37,2013-06-25 12:47:00,
2013-06-25 05:52:00,59.7,58.0,29.90,ESE,121,1.2,1.2,94,0.01,CLR,,0.12,WeatherDisplay:10.37,2013-06-25 12:52:00,
2013-06-25 05:57:00,59.8,58.1,29.91,SSE,155,1.0,0.0,94,0.01,CLR,,0.12,WeatherDisplay:10.37,2013-06-25 12:57:00,
2013-06-25 06:02:00,59.9,58.2,29.91,SE,145,1.2,1.2,94,0.01,CLR,,0.12,WeatherDisplay:10.37,2013-06-25 13:02:00,
2013-06-25 06:07:00,60.0,58.3,29.91,ESE,123,1.2,1.2,94,0.01,CLR,,0.12,WeatherDisplay:10.37,2013-06-25 13:07:00,
2013-06-25 06:12:00,60.1,58.4,29.91,ESE,115,1.2,1.2,94,0.02,RA,,0.13,WeatherDisplay:10.37,2013-06-25 13:12:00,
2013-06-25 06:17:00,60.2,58.5,29.91,SE,130,1.2,1.2,94,0.02,RA,,0.13,WeatherDisplay:10.37,2013-06-25 13:17:00,
2013-06-25 06:22:00,60.3,58.6,29.91,ESE,117,2.3,2.3,94,0.02,CLR,,0.13,WeatherDisplay:10.37,2013-06-25 13:22:00,
2013-06-25 06:27:00,60.3,58.6,29.91,SE,131,3.5,3.5,94,0.03,RA,,0.14,WeatherDisplay:10.37,2013-06-25 13:27:00,
2013-06-25 06:32:00,60.4,58.7,29.91,ESE,122,1.2,1.2,94,0.03,RA,,0.14,WeatherDisplay:10.37,2013-06-25 13:32:00,
2013-06-25 06:37:00,60.4,58.7,29.91,SE,124,2.3,2.3,94,0.02,CLR,,0.14,WeatherDisplay:10.37,2013-06-25 13:37:00,
2013-06-25 06:42:00,60.5,58.8,29.91,ESE,116,3.5,3.5,94,0.03,RA,,0.15,WeatherDisplay:10.37,2013-06-25 13:42:00,
2013-06-25 06:47:00,60.5,58.8,29.91,SSE,155,3.5,3.5,94,0.03,RA,,0.15,WeatherDisplay:10.37,2013-06-25 13:47:00,
2013-06-25 06:52:00,60.7,59.0,29.91,SE,125,3.5,3.5,94,0.03,CLR,,0.15,WeatherDisplay:10.37,2013-06-25 13:52:00,
2013-06-25 06:57:00,60.7,59.0,29.91,SE,136,5.8,5.8,94,0.04,RA,,0.16,WeatherDisplay:10.37,2013-06-25 13:57:00,
2013-06-25 07:02:00,60.7,59.0,29.91,SE,138,4.0,4.0,94,0.04,RA,,0.16,WeatherDisplay:10.37,2013-06-25 14:02:00,
2013-06-25 07:07:00,60.8,59.1,29.91,ESE,119,4.6,4.6,94,0.04,,,0.16,WeatherDisplay:10.37,2013-06-25 14:07:00,
2013-06-25 07:12:00,60.9,59.2,29.91,SE,124,6.0,6.0,94,0.03,CLR,,0.16,WeatherDisplay:10.37,2013-06-25 14:12:00,
2013-06-25 07:17:00,61.1,59.4,29.91,SSE,150,6.9,6.9,94,0.03,CLR,,0.16,WeatherDisplay:10.37,2013-06-25 14:17:00,
2013-06-25 07:22:00,61.3,59.6,29.91,South,177,6.0,6.0,94,0.03,CLR,,0.16,WeatherDisplay:10.37,2013-06-25 14:22:00,
2013-06-25 07:27:00,61.4,59.7,29.91,SSE,156,5.8,5.8,94,0.02,CLR,,0.16,WeatherDisplay:10.37,2013-06-25 14:27:00,
2013-06-25 07:32:00,61.6,59.9,29.91,SE,139,4.6,4.6,94,0.03,RA,,0.17,WeatherDisplay:10.37,2013-06-25 14:32:00,
2013-06-25 07:37:00,61.7,60.0,29.92,SE,145,8.1,8.1,94,0.03,RA,,0.17,WeatherDisplay:10.37,2013-06-25 14:37:00,
2013-06-25 07:42:00,61.7,60.0,29.92,ESE,121,6.9,6.9,94,0.03,RA,,0.18,WeatherDisplay:10.37,2013-06-25 14:42:00,
2013-06-25 07:47:00,61.8,60.1,29.92,SSE,148,4.6,4.6,94,0.03,RA,,0.18,WeatherDisplay:10.37,2013-06-25 14:47:00,
2013-06-25 07:52:00,62.0,60.3,29.92,South,173,5.8,5.8,94,0.03,CLR,,0.18,WeatherDisplay:10.37,2013-06-25 14:52:00,
2013-06-25 07:57:00,62.1,60.4,29.92,SSE,162,6.9,6.9,94,0.02,CLR,,0.18,WeatherDisplay:10.37,2013-06-25 14:57:00,
2013-06-25 08:02:00,62.0,60.3,29.92,SSE,160,9.2,9.2,94,0.02,CLR,,0.18,WeatherDisplay:10.37,2013-06-25 15:02:00,
2013-06-25 08:07:00,62.2,60.5,29.92,SSW,198,7.0,7.0,94,0.03,RA,,0.19,WeatherDisplay:10.37,2013-06-25 15:07:00,
2013-06-25 08:12:00,62.2,60.5,29.92,SSW,204,8.1,8.1,94,0.03,RA,,0.19,WeatherDisplay:10.37,2013-06-25 15:12:00,
2013-06-25 08:17:00,62.3,60.6,29.92,SSE,149,9.2,9.2,94,0.03,,,0.19,WeatherDisplay:10.37,2013-06-25 15:17:00,
2013-06-25 08:22:00,62.5,60.7,29.92,SE,142,11.5,11.5,94,0.04,RA,,0.20,WeatherDisplay:10.37,2013-06-25 15:22:00,
2013-06-25 08:27:00,62.7,60.9,29.92,SSE,166,10.4,10.4,94,0.04,RA,,0.20,WeatherDisplay:10.37,2013-06-25 15:27:00,
2013-06-25 08:32:00,62.9,61.1,29.92,SSE,153,5.8,5.8,94,0.03,CLR,,0.20,WeatherDisplay:10.37,2013-06-25 15:32:00,
2013-06-25 08:37:00,62.9,61.1,29.93,SSE,167,6.0,6.0,94,0.03,CLR,,0.20,WeatherDisplay:10.37,2013-06-25 15:37:00,
2013-06-25 08:42:00,62.9,61.1,29.93,SSE,162,8.1,8.1,94,0.02,CLR,,0.20,WeatherDisplay:10.37,2013-06-25 15:42:00,
2013-06-25 08:47:00,62.9,61.1,29.93,SSE,165,6.9,6.9,94,0.02,CLR,,0.21,WeatherDisplay:10.37,2013-06-25 15:47:00,
2013-06-25 08:52:00,62.8,60.7,29.93,South,173,8.1,8.1,93,0.03,RA,,0.21,WeatherDisplay:10.37,2013-06-25 15:52:00,
2013-06-25 08:57:00,63.0,61.2,29.93,SSE,159,4.6,4.6,94,0.03,RA,,0.21,WeatherDisplay:10.37,2013-06-25 15:57:00,
2013-06-25 09:02:00,63.1,61.3,29.93,SSE,162,8.1,8.1,94,0.03,CLR,,0.21,WeatherDisplay:10.37,2013-06-25 16:02:00,
2013-06-25 09:07:00,63.1,61.0,29.93,SSE,151,5.8,5.8,93,0.02,CLR,,0.21,WeatherDisplay:10.37,2013-06-25 16:07:00,
2013-06-25 09:12:00,63.2,61.1,29.93,SW,225,5.8,5.8,93,0.02,CLR,,0.21,WeatherDisplay:10.37,2013-06-25 16:12:00,
2013-06-25 09:17:00,63.2,61.1,29.93,SSW,201,6.9,6.9,93,0.02,CLR,,0.21,WeatherDisplay:10.37,2013-06-25 16:17:00,
2013-06-25 09:22:00,63.2,61.1,29.93,SSE,155,9.2,9.2,93,0.01,CLR,,0.21,WeatherDisplay:10.37,2013-06-25 16:22:00,
2013-06-25 09:27:00,63.2,61.1,29.93,South,170,5.8,5.8,93,0.02,RA,,0.22,WeatherDisplay:10.37,2013-06-25 16:27:00,
2013-06-25 09:32:00,63.2,61.1,29.94,SW,220,4.6,4.6,93,0.02,RA,,0.22,WeatherDisplay:10.37,2013-06-25 16:32:00,
2013-06-25 09:37:00,63.3,61.2,29.94,ESE,119,3.5,3.5,93,0.02,,,0.22,WeatherDisplay:10.37,2013-06-25 16:37:00,
2013-06-25 09:42:00,63.4,61.3,29.94,SE,128,3.5,3.5,93,0.02,CLR,,0.22,WeatherDisplay:10.37,2013-06-25 16:42:00,
2013-06-25 09:47:00,63.3,61.2,29.94,ESE,117,2.3,2.3,93,0.02,CLR,,0.22,WeatherDisplay:10.37,2013-06-25 16:47:00,
2013-06-25 09:52:00,63.4,61.3,29.95,ESE,119,2.3,2.3,93,0.01,CLR,,0.22,WeatherDisplay:10.37,2013-06-25 16:52:00,
2013-06-25 09:57:00,63.4,61.3,29.95,SE,127,3.0,3.0,93,0.02,RA,,0.23,WeatherDisplay:10.37,2013-06-25 16:57:00,
2013-06-25 10:02:00,63.4,61.3,29.95,SSE,163,3.5,3.5,93,0.02,RA,,0.23,WeatherDisplay:10.37,2013-06-25 17:02:00,
2013-06-25 10:07:00,63.5,61.4,29.95,ESE,115,3.5,3.5,93,0.02,,,0.23,WeatherDisplay:10.37,2013-06-25 17:07:00,
2013-06-25 10:12:00,63.6,61.5,29.95,SE,140,6.9,6.9,93,0.02,CLR,,0.23,WeatherDisplay:10.37,2013-06-25 17:12:00,
2013-06-25 13:40:00,64.1,61.7,29.99,South,176,12.7,12.7,92,0.01,RA,,0.24,WeatherDisplay:10.37,2013-06-25 20:40:00,
2013-06-25 13:45:00,64.2,61.8,29.99,SSE,148,4.6,4.6,92,0.10,RA,,0.33,WeatherDisplay:10.37,2013-06-25 20:45:00,
2013-06-25 13:50:00,64.4,62.0,29.99,SSE,153,1.2,1.2,92,0.09,RA,,0.33,WeatherDisplay:10.37,2013-06-25 20:50:00,
2013-06-25 13:55:00,64.5,62.1,29.99,SSE,149,5.8,5.8,92,0.09,CLR,,0.33,WeatherDisplay:10.37,2013-06-25 20:55:00,
2013-06-25 14:00:00,64.6,62.2,29.99,South,183,6.0,6.0,92,0.09,CLR,,0.33,WeatherDisplay:10.37,2013-06-25 21:00:00,
2013-06-25 14:05:00,64.5,62.1,29.99,SSW,201,5.8,5.8,92,0.09,CLR,,0.33,WeatherDisplay:10.37,2013-06-25 21:05:00,
2013-06-25 14:10:00,64.8,62.4,29.99,SSE,149,6.0,6.0,92,0.09,CLR,,0.33,WeatherDisplay:10.37,2013-06-25 21:10:00,
2013-06-25 14:15:00,64.9,62.2,29.99,SSE,147,6.0,6.0,91,0.09,CLR,,0.33,WeatherDisplay:10.37,2013-06-25 21:15:00,
2013-06-25 14:20:00,64.9,62.2,29.99,SSE,159,10.4,10.4,91,0.09,CLR,,0.33,WeatherDisplay:10.37,2013-06-25 21:20:00,
2013-06-25 14:25:00,64.9,62.2,29.99,SE,128,11.5,11.5,91,0.09,CLR,,0.33,WeatherDisplay:10.37,2013-06-25 21:25:00,
2013-06-25 14:30:00,64.9,62.2,29.99,SE,146,3.5,3.5,91,0.09,CLR,,0.33,WeatherDisplay:10.37,2013-06-25 21:30:00,
2013-06-25 14:35:00,64.9,62.5,29.99,SE,143,3.5,3.5,92,0.09,CLR,,0.33,WeatherDisplay:10.37,2013-06-25 21:35:00,
2013-06-25 14:40:00,65.0,62.6,29.99,SSE,150,3.5,3.5,92,0.09,CLR,,0.33,WeatherDisplay:10.37,2013-06-25 21:40:00,
2013-06-25 14:45:00,65.2,62.8,29.99,SSE,150,5.8,5.8,92,0.00,CLR,,0.33,WeatherDisplay:10.37,2013-06-25 21:45:00,
2013-06-25 14:50:00,65.4,63.0,29.99,SW,214,7.0,7.0,92,0.00,CLR,,0.33,WeatherDisplay:10.37,2013-06-25 21:50:00,
2013-06-25 14:55:00,65.5,62.8,29.99,SE,141,6.9,6.9,91,0.00,CLR,,0.33,WeatherDisplay:10.37,2013-06-25 21:55:00,
2013-06-25 15:00:00,65.8,63.1,29.99,SE,131,5.8,5.8,91,0.00,CLR,,0.33,WeatherDisplay:10.37,2013-06-25 22:00:00,
2013-06-25 15:05:00,65.7,62.7,29.99,SE,143,9.2,9.2,90,0.00,CLR,,0.33,WeatherDisplay:10.37,2013-06-25 22:05:00,
2013-06-25 15:10:00,66.0,63.0,29.98,South,170,6.9,6.9,90,0.00,CLR,,0.33,WeatherDisplay:10.37,2013-06-25 22:10:00,
2013-06-25 15:15:00,66.1,63.1,29.99,SE,141,3.5,3.5,90,0.00,CLR,,0.33,WeatherDisplay:10.37,2013-06-25 22:15:00,
2013-06-25 15:20:00,66.0,63.0,29.99,SSE,167,6.0,6.0,90,0.00,CLR,,0.33,WeatherDisplay:10.37,2013-06-25 22:20:00,
2013-06-25 15:25:00,65.8,62.5,29.99,South,189,6.9,6.9,89,0.00,CLR,,0.33,WeatherDisplay:10.37,2013-06-25 22:25:00,
2013-06-25 15:31:00,65.7,62.7,29.98,SSE,152,8.1,8.1,90,0.00,CLR,,0.33,WeatherDisplay:10.37,2013-06-25 22:31:00,
2013-06-25 15:36:00,65.7,62.7,29.98,SE,139,5.8,5.8,90,0.00,CLR,,0.33,WeatherDisplay:10.37,2013-06-25 22:36:00,
2013-06-25 15:41:00,65.6,62.6,29.98,South,179,11.5,11.5,90,0.00,CLR,,0.33,WeatherDisplay:10.37,2013-06-25 22:41:00,
2013-06-25 15:46:00,65.4,62.4,29.98,SSE,160,9.2,9.2,90,0.00,CLR,,0.33,WeatherDisplay:10.37,2013-06-25 22:46:00,
2013-06-25 15:51:00,65.5,62.5,29.98,South,180,3.5,3.5,90,0.00,CLR,,0.33,WeatherDisplay:10.37,2013-06-25 22:51:00,
2013-06-25 15:56:00,65.7,62.7,29.98,SE,141,7.0,7.0,90,0.00,CLR,,0.33,WeatherDisplay:10.37,2013-06-25 22:56:00,
2013-06-25 16:01:00,65.8,62.8,29.98,SSE,156,4.0,4.0,90,0.00,CLR,,0.33,WeatherDisplay:10.37,2013-06-25 23:01:00,
2013-06-25 16:06:00,65.9,62.6,29.98,SSE,158,6.9,6.9,89,0.00,CLR,,0.33,WeatherDisplay:10.37,2013-06-25 23:06:00,
2013-06-25 16:11:00,65.9,62.9,29.98,South,176,3.5,3.5,90,0.00,CLR,,0.33,WeatherDisplay:10.37,2013-06-25 23:11:00,
2013-06-25 16:16:00,66.0,63.0,29.98,SE,127,1.2,1.2,90,0.00,CLR,,0.33,WeatherDisplay:10.37,2013-06-25 23:16:00,
2013-06-25 16:21:00,66.3,63.3,29.98,SE,125,3.5,3.5,90,0.00,CLR,,0.33,WeatherDisplay:10.37,2013-06-25 23:21:00,
2013-06-25 16:26:00,66.6,63.3,29.98,SSE,166,3.5,3.5,89,0.00,CLR,,0.33,WeatherDisplay:10.37,2013-06-25 23:26:00,
2013-06-25 16:31:00,66.6,63.3,29.98,SE,134,3.5,3.5,89,0.00,CLR,,0.33,WeatherDisplay:10.37,2013-06-25 23:31:00,
2013-06-25 16:36:00,66.7,63.4,29.98,ESE,123,3.5,3.5,89,0.00,CLR,,0.33,WeatherDisplay:10.37,2013-06-25 23:36:00,
2013-06-25 16:41:00,66.6,63.3,29.98,SSE,152,4.6,4.6,89,0.00,CLR,,0.33,WeatherDisplay:10.37,2013-06-25 23:41:00,
2013-06-25 16:46:00,67.0,63.6,29.98,ESE,120,2.3,2.3,89,0.00,CLR,,0.33,WeatherDisplay:10.37,2013-06-25 23:46:00,
2013-06-25 16:51:00,67.1,63.7,29.98,SE,143,2.3,2.3,89,0.00,CLR,,0.33,WeatherDisplay:10.37,2013-06-25 23:51:00,
2013-06-25 16:56:00,67.2,63.8,29.97,SE,124,2.3,2.3,89,0.00,CLR,,0.33,WeatherDisplay:10.37,2013-06-25 23:56:00,
2013-06-25 17:01:00,67.2,63.8,29.97,SSE,153,2.3,2.3,89,0.00,CLR,,0.33,WeatherDisplay:10.37,2013-06-26 00:01:00,
2013-06-25 17:06:00,67.3,63.9,29.97,SSE,147,5.0,5.0,89,0.00,CLR,,0.33,WeatherDisplay:10.37,2013-06-26 00:06:00,
2013-06-25 17:11:00,67.5,64.1,29.97,SE,128,2.3,2.3,89,0.00,CLR,,0.33,WeatherDisplay:10.37,2013-06-26 00:11:00,
2013-06-25 17:16:00,67.6,64.2,29.97,SSE,160,3.5,3.5,89,0.00,CLR,,0.33,WeatherDisplay:10.37,2013-06-26 00:16:00,
2013-06-25 17:21:00,67.8,64.1,29.97,SSE,166,6.0,6.0,88,0.00,CLR,,0.33,WeatherDisplay:10.37,2013-06-26 00:21:00,
2013-06-25 17:26:00,68.0,64.0,29.97,South,174,6.9,6.9,87,0.00,CLR,,0.33,WeatherDisplay:10.37,2013-06-26 00:26:00,
2013-06-25 17:31:00,68.3,64.3,29.97,SE,129,6.9,6.9,87,0.00,CLR,,0.33,WeatherDisplay:10.37,2013-06-26 00:31:00,
2013-06-25 17:36:00,68.4,64.4,29.97,SSE,155,8.1,8.1,87,0.00,CLR,,0.33,WeatherDisplay:10.37,2013-06-26 00:36:00,
2013-06-25 17:41:00,68.3,64.3,29.97,South,169,3.5,3.5,87,0.00,CLR,,0.33,WeatherDisplay:10.37,2013-06-26 00:41:00,
2013-06-25 17:46:00,68.3,64.3,29.97,South,179,5.0,5.0,87,0.00,CLR,,0.33,WeatherDisplay:10.37,2013-06-26 00:46:00,
2013-06-25 17:51:00,68.4,64.4,29.97,SSE,167,4.6,4.6,87,0.00,CLR,,0.33,WeatherDisplay:10.37,2013-06-26 00:51:00,
2013-06-25 17:56:00,68.5,64.5,29.97,SSE,154,3.5,3.5,87,0.00,CLR,,0.33,WeatherDisplay:10.37,2013-06-26 00:56:00,
2013-06-25 18:01:00,68.6,64.6,29.96,South,183,4.6,4.6,87,0.00,CLR,,0.33,WeatherDisplay:10.37,2013-06-26 01:01:00,
2013-06-25 18:06:00,68.7,64.3,29.96,SSE,166,3.5,3.5,86,0.00,CLR,,0.33,WeatherDisplay:10.37,2013-06-26 01:06:00,
2013-06-25 18:11:00,68.7,64.7,29.96,SSE,155,3.5,3.5,87,0.00,CLR,,0.33,WeatherDisplay:10.37,2013-06-26 01:11:00,
2013-06-25 18:16:00,68.8,64.8,29.96,SSE,163,3.5,3.5,87,0.00,CLR,,0.33,WeatherDisplay:10.37,2013-06-26 01:16:00,
2013-06-25 18:21:00,69.1,65.1,29.96,SSE,163,4.0,4.0,87,0.00,CLR,,0.33,WeatherDisplay:10.37,2013-06-26 01:21:00,
2013-06-25 18:26:00,69.4,65.0,29.96,South,184,3.5,3.5,86,0.00,CLR,,0.33,WeatherDisplay:10.37,2013-06-26 01:26:00,
2013-06-25 18:31:00,69.4,64.7,29.96,SSE,154,4.6,4.6,85,0.00,CLR,,0.33,WeatherDisplay:10.37,2013-06-26 01:31:00,
2013-06-25 18:36:00,69.6,64.9,29.96,SSE,165,4.6,4.6,85,0.00,CLR,,0.33,WeatherDisplay:10.37,2013-06-26 01:36:00,
2013-06-25 18:41:00,69.7,64.6,29.96,SSE,158,3.5,3.5,84,0.00,CLR,,0.33,WeatherDisplay:10.37,2013-06-26 01:41:00,
2013-06-25 18:46:00,69.9,64.8,29.96,SSE,167,4.6,4.6,84,0.00,CLR,,0.33,WeatherDisplay:10.37,2013-06-26 01:46:00,
2013-06-25 18:51:00,70.1,64.7,29.95,SSE,167,3.5,3.5,83,0.00,CLR,,0.33,WeatherDisplay:10.37,2013-06-26 01:51:00,
2013-06-25 18:56:00,70.1,64.7,29.96,South,172,5.0,5.0,83,0.00,CLR,,0.33,WeatherDisplay:10.37,2013-06-26 01:56:00,
2013-06-25 19:01:00,69.9,64.2,29.96,SSE,150,4.6,4.6,82,0.00,CLR,,0.33,WeatherDisplay:10.37,2013-06-26 02:01:00,
2013-06-25 19:06:00,69.8,64.4,29.95,SSE,157,2.3,2.3,83,0.00,CLR,,0.33,WeatherDisplay:10.37,2013-06-26 02:06:00,
2013-06-25 19:11:00,70.1,64.7,29.96,SE,146,4.6,4.6,83,0.00,CLR,,0.33,WeatherDisplay:10.37,2013-06-26 02:11:00,
2013-06-25 19:16:00,70.1,64.7,29.96,SE,146,6.0,6.0,83,0.00,CLR,,0.33,WeatherDisplay:10.37,2013-06-26 02:16:00,
2013-06-25 19:21:00,69.9,64.5,29.96,SSE,150,4.6,4.6,83,0.00,CLR,,0.33,WeatherDisplay:10.37,2013-06-26 02:21:00,
2013-06-25 19:26:00,69.5,64.5,29.95,SSE,167,2.3,2.3,84,0.00,CLR,,0.33,WeatherDisplay:10.37,2013-06-26 02:26:00,
2013-06-25 19:31:00,69.3,63.9,29.96,SSE,158,3.0,3.4,83,0.00,CLR,,0.33,WeatherDisplay:10.37,2013-06-26 02:31:00,
2013-06-25 19:36:00,69.0,64.0,29.96,South,171,3.5,3.5,84,0.00,CLR,,0.33,WeatherDisplay:10.37,2013-06-26 02:36:00,
2013-06-25 19:41:00,68.8,63.8,29.96,SSE,160,3.5,3.5,84,0.00,CLR,,0.33,WeatherDisplay:10.37,2013-06-26 02:41:00,
2013-06-25 19:46:00,68.7,63.7,29.96,SSW,195,3.5,3.5,84,0.00,CLR,,0.33,WeatherDisplay:10.37,2013-06-26 02:46:00,
2013-06-25 19:51:00,68.7,63.7,29.96,SSE,163,2.3,2.3,84,0.00,CLR,,0.33,WeatherDisplay:10.37,2013-06-26 02:51:00,
2013-06-25 19:56:00,68.7,64.0,29.96,SSE,156,0.0,0.0,85,0.00,CLR,,0.33,WeatherDisplay:10.37,2013-06-26 02:56:00,
2013-06-25 20:01:00,68.6,63.9,29.95,SE,134,1.2,1.2,85,0.00,CLR,,0.33,WeatherDisplay:10.37,2013-06-26 03:01:00,
2013-06-25 20:06:00,68.4,64.0,29.95,SE,145,1.2,1.2,86,0.00,CLR,,0.33,WeatherDisplay:10.37,2013-06-26 03:06:00,
2013-06-25 20:11:00,68.4,64.0,29.95,SE,139,4.6,0.0,86,0.00,CLR,,0.33,WeatherDisplay:10.37,2013-06-26 03:11:00,
2013-06-25 20:16:00,68.2,63.9,29.95,SE,131,1.2,1.2,86,0.00,CLR,,0.33,WeatherDisplay:10.37,2013-06-26 03:16:00,
2013-06-25 20:21:00,68.0,64.0,29.95,SE,124,1.2,1.2,87,0.00,CLR,,0.33,WeatherDisplay:10.37,2013-06-26 03:21:00,
2013-06-25 20:26:00,67.8,63.8,29.95,SE,127,0.0,0.0,87,0.00,CLR,,0.33,WeatherDisplay:10.37,2013-06-26 03:26:00,
2013-06-25 20:31:00,67.7,64.0,29.95,SSE,166,1.2,1.2,88,0.00,CLR,,0.33,WeatherDisplay:10.37,2013-06-26 03:31:00,
2013-06-25 20:36:00,67.7,64.0,29.95,South,183,2.3,2.3,88,0.00,CLR,,0.33,WeatherDisplay:10.37,2013-06-26 03:36:00,
2013-06-25 20:41:00,67.6,64.2,29.95,SE,131,2.3,2.3,89,0.00,CLR,,0.33,WeatherDisplay:10.37,2013-06-26 03:41:00,
2013-06-25 20:46:00,67.5,64.1,29.95,SE,146,4.6,4.6,89,0.00,CLR,,0.33,WeatherDisplay:10.37,2013-06-26 03:46:00,
2013-06-25 20:51:00,67.3,63.9,29.95,SE,146,3.5,3.5,89,0.00,CLR,,0.33,WeatherDisplay:10.37,2013-06-26 03:51:00,
2013-06-25 20:56:00,67.1,63.7,29.95,SSE,152,4.6,4.6,89,0.00,CLR,,0.33,WeatherDisplay:10.37,2013-06-26 03:56:00,
2013-06-25 21:01:00,66.9,63.9,29.96,ESE,116,1.2,1.2,90,0.00,CLR,,0.33,WeatherDisplay:10.37,2013-06-26 04:01:00,
2013-06-25 21:02:00,66.9,63.9,29.96,ESE,116,1.2,1.2,90,0.00,CLR,,0.33,WeatherDisplay:10.37,2013-06-26 04:02:00,
2013-06-25 21:03:00,66.9,63.9,29.96,SE,131,1.2,1.2,90,0.00,CLR,,0.33,WeatherDisplay:10.37,2013-06-26 04:03:00,
2013-06-25 21:08:00,66.7,63.4,29.96,ESE,123,3.5,3.5,89,0.00,CLR,,0.33,WeatherDisplay:10.37,2013-06-26 04:08:00,
2013-06-25 21:13:00,66.3,63.3,29.96,SE,128,3.5,3.5,90,0.00,CLR,,0.33,WeatherDisplay:10.37,2013-06-26 04:13:00,
2013-06-25 21:18:00,66.0,63.0,29.96,SSE,162,2.3,2.3,90,0.00,CLR,,0.33,WeatherDisplay:10.37,2013-06-26 04:18:00,
2013-06-25 21:23:00,65.9,62.9,29.96,SSE,156,1.2,1.2,90,0.00,CLR,,0.33,WeatherDisplay:10.37,2013-06-26 04:23:00,
2013-06-25 21:28:00,65.8,62.8,29.97,SSE,149,3.5,3.5,90,0.00,CLR,,0.33,WeatherDisplay:10.37,2013-06-26 04:28:00,
2013-06-25 21:33:00,65.6,62.6,29.97,SSE,154,6.0,6.0,90,0.00,CLR,,0.33,WeatherDisplay:10.37,2013-06-26 04:33:00,
2013-06-25 21:38:00,65.5,62.5,29.97,SSE,150,5.8,5.8,90,0.00,CLR,,0.33,WeatherDisplay:10.37,2013-06-26 04:38:00,
2013-06-25 21:43:00,65.4,62.4,29.97,SE,134,4.6,4.6,90,0.00,CLR,,0.33,WeatherDisplay:10.37,2013-06-26 04:43:00,
2013-06-25 21:48:00,65.2,62.2,29.97,SSE,167,3.5,3.5,90,0.00,CLR,,0.33,WeatherDisplay:10.37,2013-06-26 04:48:00,
2013-06-25 21:53:00,65.1,62.1,29.97,South,181,3.5,3.5,90,0.00,CLR,,0.33,WeatherDisplay:10.37,2013-06-26 04:53:00,
2013-06-25 21:58:00,65.0,62.3,29.97,SSW,211,4.6,4.6,91,0.00,CLR,,0.33,WeatherDisplay:10.37,2013-06-26 04:58:00,
2013-06-25 22:03:00,64.9,62.2,29.98,South,184,4.0,4.0,91,0.00,CLR,,0.33,WeatherDisplay:10.37,2013-06-26 05:03:00,
2013-06-25 22:08:00,64.8,62.1,29.98,South,184,5.0,5.0,91,0.00,CLR,,0.33,WeatherDisplay:10.37,2013-06-26 05:08:00,
2013-06-25 22:13:00,64.6,61.9,29.98,SSE,163,4.6,4.6,91,0.00,CLR,,0.33,WeatherDisplay:10.37,2013-06-26 05:13:00,
2013-06-25 22:18:00,64.5,61.8,29.98,South,172,1.2,1.2,91,0.00,CLR,,0.33,WeatherDisplay:10.37,2013-06-26 05:18:00,
2013-06-25 22:23:00,64.4,61.7,29.98,SSE,155,2.3,2.3,91,0.00,CLR,,0.33,WeatherDisplay:10.37,2013-06-26 05:23:00,
2013-06-25 22:28:00,64.4,61.7,29.98,SSE,165,0.0,0.0,91,0.00,CLR,,0.33,WeatherDisplay:10.37,2013-06-26 05:28:00,
2013-06-25 22:33:00,64.3,61.6,29.98,SSE,155,1.2,1.2,91,0.00,CLR,,0.33,WeatherDisplay:10.37,2013-06-26 05:33:00,
2013-06-25 22:38:00,64.2,61.5,29.98,SSE,159,0.0,0.0,91,0.00,CLR,,0.33,WeatherDisplay:10.37,2013-06-26 05:38:00,
2013-06-25 22:43:00,64.1,61.4,29.98,SE,135,2.3,2.3,91,0.00,CLR,,0.33,WeatherDisplay:10.37,2013-06-26 05:43:00,
2013-06-25 22:48:00,64.0,61.6,29.98,SE,139,1.2,1.2,92,0.00,CLR,,0.33,WeatherDisplay:10.37,2013-06-26 05:48:00,
2013-06-25 22:53:00,64.0,61.6,29.98,SE,128,1.2,0.0,92,0.00,CLR,,0.33,WeatherDisplay:10.37,2013-06-26 05:53:00,
2013-06-25 22:59:00,63.9,61.5,29.98,South,169,1.2,1.2,92,0.00,CLR,,0.33,WeatherDisplay:10.37,2013-06-26 05:59:00,
2013-06-25 23:04:00,63.9,61.5,29.98,SE,144,3.5,3.5,92,0.00,CLR,,0.33,WeatherDisplay:10.37,2013-06-26 06:04:00,
2013-06-25 23:09:00,63.8,61.4,29.98,SSE,161,4.6,4.6,92,0.00,CLR,,0.33,WeatherDisplay:10.37,2013-06-26 06:09:00,
2013-06-25 23:14:00,63.8,61.4,29.98,ESE,112,4.6,4.6,92,0.00,CLR,,0.33,WeatherDisplay:10.37,2013-06-26 06:14:00,
2013-06-25 23:19:00,63.7,61.3,29.98,SSE,159,3.5,3.5,92,0.00,CLR,,0.33,WeatherDisplay:10.37,2013-06-26 06:19:00,
2013-06-25 23:24:00,63.7,61.3,29.98,SSE,158,3.5,3.5,92,0.00,CLR,,0.33,WeatherDisplay:10.37,2013-06-26 06:24:00,
2013-06-25 23:29:00,63.6,61.2,29.98,SSW,195,4.6,4.6,92,0.00,CLR,,0.33,WeatherDisplay:10.37,2013-06-26 06:29:00,
2013-06-25 23:34:00,63.6,61.2,29.98,SSE,156,3.5,3.5,92,0.00,CLR,,0.33,WeatherDisplay:10.37,2013-06-26 06:34:00,
2013-06-25 23:39:00,63.5,61.4,29.98,SSE,166,3.5,3.5,93,0.00,CLR,,0.33,WeatherDisplay:10.37,2013-06-26 06:39:00,
2013-06-25 23:44:00,63.5,61.4,29.98,SSE,160,3.5,3.5,93,0.00,CLR,,0.33,WeatherDisplay:10.37,2013-06-26 06:44:00,
2013-06-25 23:49:00,63.5,61.4,29.98,SSE,165,3.5,3.5,93,0.00,CLR,,0.33,WeatherDisplay:10.37,2013-06-26 06:49:00,
2013-06-25 23:54:00,63.5,61.4,29.98,South,179,3.5,3.5,93,0.00,CLR,,0.33,WeatherDisplay:10.37,2013-06-26 06:54:00,
2013-06-25 23:59:00,63.5,61.4,29.98,ESE,119,2.3,2.3,93,0.00,CLR,,0.33,WeatherDisplay:10.37,2013-06-26 06:59:00,